NOAA 16 DEB, 41080

Orbit data source: Space-Track

NOAA 16 DEB, 41080 is space debris in SSO originally from a launch on Thu, 21 Sep 2000 UTC launched from the Air Force Western Test Range (AFWTR). Debris objects in space refer to the collection of defunct objects orbiting the Earth. Examples of debris include non-operational satellites, rocket bodies, and fragments generated from explosions, collisions, or faulty payload assembly.

Loading next visibility...
Identifier
41080, 2000-055AP
Orbit
SSO
Country
Flag of USUS
Related business
Manufacturer
Unknown
Mission
Spacecraft
Bus & Motor
Unknown
Mass
Unknown
Launch date (UTC)
2000-09-21 (25 years ago)
Launch vehicle
Unknown
Launch site
Air Force Western Test Range (AFWTR)
Object type
Payload
Rocket body
Debris
Shape & HBR
Unknown shape, 0.1 m
Radar Cross Section
Small (<0.1 m²)

Expand to show TLE details & history
Last TLE update: 2 days ago

TLE from 2 days ago
0 NOAA 16 DEB
1 41080U 00055AP  26037.06624401  .00004158  00000-0  18496-2 0  9992
2 41080  98.5358  83.8750 0007158 244.3831 115.6608 14.23395055526232
Epoch: 2026-02-06T01:35Z
TLE epoch observation values (Epoch: 2026-02-06T01:35:23.482Z)
Latitude
-0.00008°
Longitude
-76.18229°
Altitude
819.051 km
Speed
7.442 km/s
True Right ascension
05h 35m 30s
True Declination
0° 00' 00"
Sunlit
Object was in full shadow at epoch
Visualization orbit readout
Latitude
Unknown
Longitude
Unknown
Altitude
Unknown
Speed
Unknown
Apparent Right ascension
Unknown
Apparent Declination
Unknown
Sunlit
N/A
Visualization observer readout
Local Sidereal Time
16:02:25
Azimuth
Unknown
Elevation
Unknown
Doppler factor
Unknown
Orbital elements
Apogee altitude
816.186 km
Perigee altitude
805.894 km
Semi-major axis
7,189.177 km
Eccentricity
0.00072
Inclination
98.5358°
RAAN
83.875°
Arg. of periapsis
244.3831°
True anomaly
115.73471°
Mean anomaly
115.6608°
Eccentric anomaly
115.69776°
Mean motion
3.56061 °/min
Orbital period
101.11 mins
BSTAR
0.0018496
Loading maneuver chart data...
Computing Atmospheric mass density...
Loading historical data...
Loading historical data...
Loading historical data...
Loading historical data...
Loading historical data...
Loading historical data...
Loading historical data...

Documentation

Showing up to 5 results
|